Theta_e
324 325 319 309 307 308 312 316 318 319 319 319 319 319 319 318 318 318 318 318 320 322 322 318 320 320 320 320 320 320 311 312 317 322 323 323 323 324 324 324 325 334 338 339 341
324 324 324 316 310 308 308 314 317 318 318 319 319 319 318 318 318 318 318 318 318 322 321 318 319 320 319 319 320 316 311 314 317 320 321 321 323 323 323 323 330 333 331 330 333
322 324 324 324 316 311 308 309 316 318 318 318 319 319 318 318 318 317 319 319 318 321 320 318 315 319 319 319 319 317 315 314 321 322 321 320 321 322 321 321 331 331 331 332 334
319 321 323 323 324 317 309 308 311 317 318 318 318 318 318 318 318 320 318 318 321 321 319 315 319 319 317 317 318 318 319 320 321 322 322 321 321 320 321 321 327 327 328 330 334
315 318 320 322 323 324 314 309 308 313 317 317 318 318 318 317 317 320 319 320 315 315 315 318 319 320 317 317 320 318 319 321 321 322 322 322 321 320 321 321 322 323 324 323 324
307 315 318 320 322 323 322 313 309 309 314 316 317 317 317 316 316 317 320 321 319 316 317 319 319 322 321 320 319 321 322 322 323 322 321 320 320 321 322 322 322 323 322 324 325
303 306 316 318 319 321 323 318 313 309 311 315 317 317 317 317 316 318 320 320 320 317 317 320 321 322 321 320 322 323 321 319 320 322 320 321 318 318 322 322 321 323 324 325 326
302 302 311 317 318 319 321 323 315 311 310 314 316 317 316 315 315 319 320 319 318 320 319 319 322 322 321 322 321 322 320 319 317 319 320 320 319 319 323 321 322 323 325 326 326
304 302 302 315 318 317 320 322 318 314 311 315 317 316 315 314 315 316 319 319 319 318 319 318 319 320 320 318 317 319 318 319 319 319 319 318 320 320 323 321 323 324 325 325 326
306 303 302 306 315 317 318 321 318 315 312 316 316 316 315 315 314 315 317 319 320 318 318 317 316 316 316 316 317 319 321 319 319 320 318 318 319 322 321 322 323 325 325 325 327
307 305 303 302 307 314 316 319 317 315 316 315 315 316 316 318 316 318 315 318 320 318 315 317 313 315 317 317 318 318 320 321 319 322 322 318 319 319 323 322 323 324 324 327 328
306 306 304 302 305 313 314 318 315 313 315 315 315 315 313 316 316 317 319 319 319 319 315 315 315 313 316 317 319 320 320 319 318 320 322 320 319 318 320 323 324 324 324 325 330
303 306 305 303 302 306 313 311 316 314 315 316 313 314 316 315 315 316 318 319 319 318 316 317 317 315 315 316 318 319 320 319 320 323 323 324 322 324 324 324 327 325 326 326 327
301 304 306 305 304 304 312 311 311 315 315 315 316 315 313 316 318 315 317 319 316 318 316 316 317 316 315 316 317 318 319 321 324 325 324 322 323 322 322 323 322 325 324 326 329
301 303 305 306 303 306 310 311 311 314 317 313 316 316 314 315 316 317 318 318 317 316 316 317 317 316 317 318 317 319 322 324 327 326 326 326 326 323 323 323 322 321 323 326 329
302 301 305 307 304 304 311 310 309 311 316 313 315 316 314 314 316 317 318 317 317 316 316 316 318 318 315 317 318 319 325 325 325 325 328 326 327 325 322 323 322 321 324 327 330
303 302 305 307 304 304 308 310 311 313 313 314 318 317 315 316 315 316 318 317 317 317 317 317 315 315 318 318 317 323 324 327 328 328 329 326 327 327 322 322 322 322 327 330 331
303 303 306 306 302 306 307 311 313 313 314 315 315 318 317 316 316 316 317 318 318 317 316 319 322 318 318 319 321 323 326 328 329 327 326 324 327 324 323 324 324 325 326 330 331
304 303 306 306 303 304 309 312 312 314 314 316 315 319 318 316 317 316 317 317 318 318 318 319 320 321 321 322 320 324 326 324 326 325 320 324 323 322 323 322 322 323 326 329 331
304 304 307 305 304 305 305 307 308 312 315 315 317 318 319 317 318 317 316 316 318 319 317 320 321 321 321 323 322 323 324 327 324 329 327 323 324 323 324 323 322 324 326 329 330
305 304 306 305 304 305 306 307 308 310 313 315 318 319 318 317 317 318 316 315 316 319 319 318 318 320 322 324 325 324 325 325 325 325 325 324 323 321 322 323 324 324 325 328 330
305 305 304 305 303 303 306 305 308 310 312 313 317 319 318 317 318 318 317 315 315 318 320 320 319 321 322 322 323 325 325 326 327 326 325 321 323 322 321 322 324 324 325 326 329
304 301 303 304 302 303 303 306 308 311 311 313 316 317 319 318 319 318 317 315 315 318 320 320 320 318 319 319 319 324 324 324 324 322 326 327 325 322 322 321 323 323 324 325 327
301 303 305 303 302 301 305 306 308 309 312 312 315 316 318 320 320 320 318 317 316 317 320 319 321 320 319 320 321 323 324 323 325 327 325 326 325 323 323 322 319 321 324 325 327
302 302 303 303 302 302 305 308 308 309 311 313 315 316 318 322 322 320 321 322 318 317 318 320 321 320 320 317 321 322 323 323 324 325 327 326 325 323 322 322 320 322 323 323 325
301 301 303 302 303 303 304 305 308 310 313 314 315 316 316 318 320 322 321 322 322 319 318 319 320 320 320 319 319 320 322 323 323 324 324 324 323 321 322 323 321 321 321 322 323
302 303 303 302 303 303 304 305 307 307 308 313 315 316 317 318 318 318 320 321 322 323 320 320 321 323 322 320 321 322 320 321 323 323 324 325 323 320 321 321 322 323 321 321 322
Wind_Speed
24 25 25 26 28 28 28 27 25 22 20 18 18 17 18 20 21 19 21 15 12 10 10 10 9 6 9 11 9 4 4 1 4 4 3 0 2 2 3 6 6 7 18 17 21
25 27 26 26 26 29 28 27 26 24 21 19 17 17 17 19 23 24 19 18 15 12 13 13 12 10 3 4 5 4 4 8 5 3 1 2 3 2 0 2 5 14 19 18 19
21 27 26 26 27 27 28 28 27 26 23 21 18 17 16 16 21 18 10 13 18 15 13 13 14 8 5 6 4 4 6 5 5 3 3 2 1 3 4 2 18 23 23 20 19
23 21 25 28 28 28 28 28 28 26 25 22 19 18 16 11 7 4 7 4 8 12 12 10 7 3 3 3 4 3 11 8 8 7 4 2 5 5 2 2 19 18 19 19 20
30 26 22 24 28 29 28 29 28 27 25 23 20 19 17 13 25 12 8 9 5 7 8 8 8 7 4 4 7 4 4 4 2 9 6 4 6 6 9 5 16 17 18 14 13
28 30 26 19 25 28 29 27 28 28 26 22 21 19 18 14 25 18 9 12 9 7 8 9 7 5 7 5 2 4 2 2 3 5 4 6 9 5 10 16 16 17 13 13 12
25 28 30 29 21 25 26 27 26 27 26 23 21 21 23 33 10 15 15 11 12 9 12 8 7 10 3 5 6 2 3 6 4 6 5 3 8 10 25 16 18 18 14 15 16
22 26 27 26 20 22 25 26 24 25 24 23 21 20 19 34 32 20 15 11 11 8 9 8 7 9 3 7 6 1 4 1 6 6 9 10 10 8 22 21 22 19 19 19 19
22 22 27 30 24 14 20 22 24 22 21 21 19 16 16 12 31 36 26 21 11 11 12 8 6 4 2 3 4 3 3 4 8 11 4 7 8 15 18 27 24 21 20 22 21
25 22 23 31 31 32 14 22 23 19 20 17 18 5 24 19 25 26 34 27 18 11 9 7 4 2 2 4 9 6 4 4 7 3 8 7 10 5 13 26 26 23 16 23 23
25 25 23 24 32 37 36 25 20 12 30 20 14 18 8 17 15 23 34 33 25 18 7 6 4 8 13 13 3 5 3 3 5 5 4 8 9 11 14 16 16 20 15 27 26
25 26 25 26 30 35 24 30 38 10 9 38 27 24 37 7 8 19 21 24 20 14 8 3 14 12 11 5 7 8 6 7 11 9 6 4 10 11 8 12 21 21 19 30 28
27 27 28 26 25 32 27 32 20 9 5 11 52 37 27 20 18 22 29 32 19 11 16 15 4 18 10 7 9 9 11 7 9 1 2 2 5 6 7 13 19 19 21 32 35
27 28 29 27 25 31 32 33 28 27 4 10 13 19 41 24 10 34 23 25 6 19 9 13 19 6 11 13 13 14 10 12 8 3 4 4 6 6 7 10 7 23 25 37 38
29 30 30 35 30 25 36 33 21 15 7 10 27 12 34 31 11 24 31 30 18 10 11 12 13 22 19 17 14 8 9 9 5 3 3 2 3 6 8 8 10 11 24 39 41
29 31 31 37 34 34 26 30 21 7 8 7 20 21 15 31 23 12 34 22 20 7 18 18 17 12 9 16 14 7 4 4 3 3 7 8 8 14 7 8 6 6 26 35 36
29 31 34 41 43 35 34 29 7 8 4 6 15 24 32 21 28 11 24 19 13 11 18 7 23 10 4 6 14 7 9 0 2 3 11 12 8 22 4 9 10 13 25 34 37
32 31 36 45 38 27 36 9 11 11 10 6 9 23 26 24 24 22 23 23 23 22 12 16 11 25 9 15 8 15 15 6 9 5 10 10 10 9 14 24 19 30 40 39 39
27 34 40 45 40 38 21 15 10 8 16 9 12 21 18 20 15 28 21 31 30 25 15 15 16 6 15 6 20 8 11 12 5 3 3 4 7 7 5 10 8 22 30 37 41
31 36 44 46 40 37 11 11 7 10 11 13 19 18 20 28 18 27 29 28 29 31 17 5 5 9 20 7 14 13 7 5 2 5 5 5 6 8 6 9 7 13 28 36 40
32 21 31 45 35 22 12 6 9 21 15 9 9 12 21 23 25 31 22 12 30 28 25 5 5 5 11 18 21 5 9 5 5 7 8 1 7 8 11 10 14 17 32 38 43
32 10 24 44 12 5 11 8 6 17 18 11 3 7 14 21 25 23 29 36 28 24 33 23 4 5 21 23 23 23 24 25 11 6 9 4 15 4 8 12 18 24 27 28 38
20 7 34 44 11 12 3 8 10 13 27 8 7 13 9 16 17 15 24 22 12 26 26 21 7 2 4 6 7 26 19 11 4 4 14 10 13 8 6 7 20 17 24 31 33
16 5 14 25 18 16 11 10 12 19 16 22 7 11 15 13 7 7 18 10 27 17 30 23 16 20 21 18 9 12 23 22 20 13 7 22 6 5 6 7 8 20 31 35 36
13 6 10 11 12 16 13 5 15 12 21 18 14 18 18 11 14 16 3 1 12 21 12 16 23 23 28 12 10 17 19 28 27 29 20 23 19 9 8 10 15 31 31 32 37
12 7 15 10 11 17 15 14 10 14 8 18 20 22 13 18 18 13 14 9 8 9 22 16 13 21 24 12 20 14 10 28 33 28 27 15 13 9 19 15 12 23 26 29 34
20 17 23 10 13 10 13 11 21 17 10 15 31 12 13 16 12 14 25 3 5 4 8 14 17 4 26 19 8 17 35 16 18 28 28 24 18 7 9 8 17 20 32 35 37
Wind_Direction
255 253 256 252 251 250 247 249 252 254 257 264 276 283 289 292 288 283 276 269 271 278 281 296 284 336 274 260 251 233 70 193 256 200 227 28 102 69 112 139 134 160 157 158 160
250 248 254 253 253 251 249 248 250 253 256 261 269 280 286 296 295 283 272 269 262 262 274 283 283 316 288 251 232 148 121 217 226 190 48 42 129 149 181 221 102 128 138 150 166
261 249 251 256 252 252 246 249 247 250 253 257 264 272 282 295 306 288 284 252 244 252 262 272 272 302 282 271 238 201 194 214 251 170 107 37 294 299 182 221 166 151 153 164 177
263 260 249 245 249 250 247 244 248 246 251 253 258 266 274 274 259 143 16 346 244 248 257 253 253 252 249 256 259 234 239 217 193 194 156 149 333 323 254 200 164 154 158 174 193
261 262 267 256 248 247 246 243 243 247 246 250 255 261 271 250 240 226 314 306 278 236 242 229 276 260 236 244 309 203 246 192 151 175 208 227 237 240 263 221 171 164 164 174 182
264 260 260 268 246 248 245 244 241 243 246 246 251 255 263 250 253 256 260 260 252 253 239 262 256 273 278 259 214 315 260 298 236 203 238 206 245 222 240 229 191 184 187 174 188
264 261 256 258 280 243 241 242 241 238 243 244 247 251 253 244 243 222 214 231 255 240 249 288 238 232 310 298 328 231 281 338 253 241 233 221 284 228 244 235 205 195 201 186 193
266 265 252 245 263 264 242 237 241 234 235 239 244 251 254 253 244 223 209 205 198 234 248 244 241 246 239 313 313 257 75 85 279 212 239 163 256 250 253 224 190 191 203 192 196
268 268 255 247 243 293 236 233 236 230 229 231 239 242 268 249 241 223 223 230 204 227 234 244 245 224 261 96 358 333 221 199 303 214 175 165 244 250 270 195 190 204 210 206 190
266 261 267 245 246 248 267 248 219 218 218 221 224 245 249 234 235 236 217 220 231 226 223 240 217 137 56 121 213 209 209 232 234 257 201 187 224 256 202 191 198 205 204 184 184
262 263 267 263 247 250 256 223 169 211 208 195 198 203 245 274 237 215 207 211 222 215 170 200 168 196 204 205 165 189 197 243 267 248 200 218 228 244 216 205 206 212 205 176 183
258 257 255 258 250 245 259 220 196 209 213 225 220 227 225 121 319 227 203 194 196 203 172 227 225 211 217 196 213 254 261 262 285 246 180 213 245 255 250 220 213 218 224 185 181
257 252 248 255 255 251 232 243 240 215 255 211 223 221 222 245 244 238 208 199 197 185 194 209 228 189 207 211 212 232 225 235 229 302 293 255 273 236 240 229 242 241 222 193 192
259 251 243 248 256 241 238 240 254 226 255 219 191 232 219 221 257 229 227 194 198 208 175 236 231 199 209 225 190 223 199 231 232 267 237 160 267 256 228 244 253 249 217 196 195
258 248 239 234 231 235 224 245 240 239 228 212 200 204 199 196 145 213 206 195 199 169 168 216 181 202 223 219 207 221 184 199 169 162 339 190 288 244 200 230 242 227 203 198 197
257 247 237 236 239 230 229 222 218 233 227 243 165 178 153 200 206 174 195 211 207 200 216 216 191 196 216 208 204 177 79 54 62 113 255 198 205 246 190 211 241 194 193 190 193
256 243 234 226 228 227 228 184 208 208 120 226 182 172 188 187 197 177 187 191 178 189 220 203 239 251 203 163 215 156 128 238 254 203 242 175 203 244 246 219 201 187 183 188 188
254 239 231 224 227 232 211 209 218 186 192 255 197 180 190 174 194 198 183 197 208 196 192 205 215 215 200 210 173 193 183 176 182 199 246 183 233 239 214 225 222 196 190 190 192
246 234 231 221 223 217 213 223 204 189 207 190 206 174 196 192 174 200 193 198 199 198 194 199 227 177 202 185 187 193 197 188 102 350 50 230 285 301 210 230 198 186 180 187 192
231 227 219 213 217 216 234 233 194 183 266 226 191 185 187 194 188 190 199 206 207 203 200 206 221 201 200 157 212 198 149 159 139 186 247 230 248 230 203 209 186 178 190 189 190
218 221 214 209 207 210 238 217 206 228 216 227 237 194 198 187 195 190 201 196 203 201 206 207 162 228 153 197 191 133 188 188 187 181 204 253 253 211 200 195 188 199 195 187 192
201 219 186 194 188 202 228 180 261 228 220 259 245 241 204 187 193 196 208 204 198 192 197 204 158 182 204 212 203 201 201 196 204 210 226 181 250 248 221 195 195 201 197 195 191
190 174 177 179 182 213 272 212 207 230 228 217 236 223 247 192 200 194 215 213 209 190 194 192 204 94 3 296 234 213 208 198 159 107 215 202 246 198 205 190 203 196 191 192 190
158 175 163 172 202 196 196 211 198 234 238 214 235 254 231 235 168 214 228 193 229 204 197 188 211 214 212 216 156 197 208 206 203 216 183 222 224 254 208 197 191 191 195 192 191
166 187 163 170 201 194 191 214 211 221 210 202 221 241 219 207 211 234 278 252 209 209 203 197 216 219 238 239 199 206 210 209 212 220 206 231 231 211 211 206 197 199 194 187 193
161 157 175 179 169 195 196 209 226 203 220 219 219 210 227 214 206 186 218 217 228 194 209 219 227 224 242 227 242 251 243 217 218 219 230 232 231 173 224 236 203 199 195 192 197
178 168 155 139 166 176 203 195 214 216 269 262 220 199 220 226 226 225 207 147 160 115 183 212 214 168 235 220 223 245 238 237 227 223 225 227 227 204 209 201 220 202 203 204 206